Printer-friendly version
Follow the MPC on Twitter Follow the MPC on Facebook The MPC blog
Minor Planet Center

MPEC 2008-J62 : 2008 JO24

The following Minor Planet Electronic Circular may be linked-to from your own Web pages, but must not otherwise be redistributed electronically.

A form allowing access to any MPEC is at the bottom of this page.


Read MPEC 2008-J61 Read MPEC 2008-J63


M.P.E.C. 2008-J62                                Issued 2008 May 12, 16:28 UT

     The Minor Planet Electronic Circulars contain information on unusual
         minor planets and routine data on comets.  They are published
   on behalf of Commission 20 of the International Astronomical Union by the
          Minor Planet Center, Smithsonian Astrophysical Observatory,
                          Cambridge, MA 02138, U.S.A.

             Prepared using the Tamkin Foundation Computer Network

                              MPC@CFA.HARVARD.EDU
          URL http://www.cfa.harvard.edu/iau/mpc.html  ISSN 1523-6714

                                   2008 JO24

Observations:
     K08J24O* C2008 05 10.44617 21 06 53.10 +15 01 04.4          20.6 V EJ062G96
     K08J24O  C2008 05 10.45096 21 06 53.89 +15 01 04.7          20.4 V EJ062G96
     K08J24O  C2008 05 10.45603 21 06 54.72 +15 01 04.5          20.5 V EJ062G96
     K08J24O  C2008 05 10.46067 21 06 55.58 +15 01 05.1          20.0 V EJ062G96
     K08J24O  C2008 05 11.01941 21 08 29.72 +15 01 10.3          20.1 V EJ062A17
     K08J24O  C2008 05 11.03981 21 08 33.08 +15 01 10.4          20.5 V EJ062A17
     K08J24O  C2008 05 11.05735 21 08 36.05 +15 01 11.1          19.9 V EJ062A17
     K08J24O  C2008 05 11.42751 21 09 38.34 +15 01 15.4          20.4 V EJ062G96
     K08J24O  C2008 05 11.42942 21 09 38.66 +15 01 15.5          20.4 V EJ062G96
     K08J24O  C2008 05 11.43140 21 09 38.98 +15 01 15.6          20.3 V EJ062G96
     K08J24O  C2008 05 11.43322 21 09 39.31 +15 01 15.5          20.1 V EJ062G96
     K08J24O  C2008 05 12.46379 21 12 32.33 +15 01 08.3          20.6 V EJ062G96
     K08J24O  C2008 05 12.47220 21 12 33.73 +15 01 08.5          20.3 V EJ062G96
     K08J24O  C2008 05 12.47535 21 12 34.25 +15 01 08.2          20.7 V EJ062G96

Observer details:
A17 Guidestar Observatory, Weinheim.  Observers M. Emmerich, S. Melchert.
    0.36-m f/6 Schmidt-Cassegrain + CCD.
G96 Mt. Lemmon Survey.  Observers R. A. Kowalski, A. Boattini.  Measurers
    E. C. Beshore, A. Boattini, G. J. Garradd, A. R. Gibbs, A. D. Grauer,
    R. E. Hill, R. A. Kowalski, S. M. Larson, R. H. McNaught.  1.5-m reflector
    + CCD.

Orbital elements:
2008 JO24
Epoch 2008 May 14.0 TT = JDT 2454600.5                  MPC
M 356.62559              (2000.0)            P               Q
n   0.20038819     Peri.  147.06557     +0.29591959     +0.89494807
a   2.8921532      Node   137.30111     -0.94775624     +0.31867924
e   0.5267528      Incl.   29.49813     -0.11912055     -0.31226832
P   4.92           H   17.8           G   0.15           U   9
Residuals in seconds of arc
080510 G96  0.2-  0.0     080511 A17  0.5-  0.3-    080511 G96  0.3+  0.2-
080510 G96  0.3-  0.2+    080511 A17  0.0   0.1+    080512 G96  0.1-  0.0
080510 G96  0.4-  0.1-    080511 G96  0.0   0.2-    080512 G96  0.1+  0.3+
080510 G96  0.9+  0.3+    080511 G96  0.0   0.2-    080512 G96  0.1+  0.1+
080511 A17  0.3+  0.0     080511 G96  0.1-  0.1-

Ephemeris:
2008 JO24                a,e,i = 2.89, 0.53, 29                  q = 1.3687
Date    TT    R. A. (2000) Decl.     Delta      r     Elong.  Phase     V
2008 05 04    20 48.67   +14 52.8    1.057    1.398    85.2    45.9    20.4
2008 05 14    21 16.82   +15 00.4    0.995    1.380    87.0    47.0    20.3
2008 05 24    21 44.39   +14 34.8    0.935    1.371    89.4    47.6    20.1
2008 06 03    22 11.18   +13 28.9    0.877    1.369    92.5    47.8    20.0
2008 06 13    22 36.87   +11 34.1    0.820    1.376    96.5    47.2    19.8
2008 06 23    23 01.09   +08 41.6    0.767    1.391   101.6    45.7    19.7
2008 07 03    23 23.33   +04 43.5    0.720    1.413   107.7    43.3    19.5
2008 07 13    23 42.87   -00 25.4    0.681    1.443   115.0    39.7    19.3
2008 07 23    23 59.03   -06 40.9    0.655    1.479   123.1    35.1    19.2
2008 08 02    00 11.04   -13 45.8    0.644    1.520   131.5    30.0    19.1
2008 08 12    00 18.28   -21 06.5    0.653    1.567   139.1    25.0    19.0
2008 08 22    00 20.62   -27 59.1    0.684    1.617   144.4    21.3    19.1
2008 09 01    00 18.48   -33 45.1    0.735    1.671   146.1    19.7    19.2
2008 09 11    00 13.15   -38 00.4    0.807    1.727   144.2    19.9    19.5
2008 09 21    00 06.51   -40 40.8    0.896    1.786   139.9    21.2    19.9
2008 10 01    00 00.40   -41 56.1    1.001    1.846   134.4    22.8    20.2
2008 10 11    23 56.28   -42 01.9    1.119    1.907   128.4    24.2    20.6
2008 10 21    23 54.87   -41 15.8    1.248    1.969   122.3    25.3    20.9
2008 10 31    23 56.25   -39 52.5    1.386    2.031   116.3    26.0    21.2
2008 11 10    00 00.24   -38 03.5    1.533    2.094   110.3    26.3    21.5
2008 11 20    00 06.41   -35 57.7    1.686    2.156   104.4    26.3    21.8
2008 11 30    00 14.37   -33 41.2    1.845    2.219    98.7    26.1    22.0

Gareth V. Williams           (C) Copyright 2008 MPC           M.P.E.C. 2008-J62

Read MPEC 2008-J61 Read MPEC 2008-J63


MPEC number:

Enter an MPEC number in one of the following forms:

  • 1997-B01 (the full form)
  • J97B01 (the packed version of the full form)
  • B01 (the abbreviated form)

Valid HTML 4.01!